Regional Weather Roundup
Issued by NWS Upton, NY

Current Version | Previous Version | Text Only | Print | Product List | Glossary On
Versions: 1 2 3 4 5 6 7 8 9 10 11 12 13 14 15 16 17 18 19 20 21 22 23 24 25 26 27 28 29 30 31 32 33 34 35 36 37 38 39 40 41 42 43 44 45 46
000
ASUS41 KOKX 250105
RWROKX

REGIONAL WEATHER ROUNDUP
NATIONAL WEATHER SERVICE NEW YORK NY
800 PM EST WED DEC 24 2014

NOTE: "FAIR" INDICATES FEW OR NO CLOUDS BELOW 12,000 FEET WITH NO
SIGNIFICANT WEATHER AND/OR OBSTRUCTIONS TO VISIBILITY.

NYZ071-072-176-178-NJZ106-104-250200-
NEW YORK CITY METRO AREA


CITY           SKY/WX    TMP DP  RH WIND       PRES   REMARKS
CENTRAL PARK   CLOUDY    54  54 100 CALM      29.63F FOG
LAGUARDIA APRT FOG       55  54  96 S12       29.59F VSB 1/2
KENNEDY INTL   FOG       54  52  93 S22       29.61F VSB 1/4
NEWARK/LIBERTY DRZL/FOG  53  53 100 NW5       29.60R VSB 1/4
BRNX BOT. GARD   N/A     54  54 100 S5        29.63R
TETERBORO      CLOUDY    50  50 100 NW5       29.59R FOG
$$

NYZ177-179-078>081-250200-
LONG ISLAND NEW YORK

CITY           SKY/WX    TMP DP  RH WIND       PRES   REMARKS
FARMINGDALE    FOG       57  56  96 SW14G23   29.61F VSB 1/2
ISLIP          FOG       58  57  97 S15G23    29.60F VSB 1/8
SHIRLEY        LGT RAIN  61  60  97 S18G30    29.64F
WESTHAMPTON    LGT RAIN  58  57  97 S13G20    29.66F FOG
MONTAUK POINT    N/A     57  56  96 S12G20    29.70F
$$

NYZ052-065-067-250200-
HUDSON VALLEY

CITY           SKY/WX    TMP DP  RH WIND       PRES   REMARKS
WHITE PLAINS   FOG       55  55 100 S6        29.60F VSB 1/8
NEWBURGH       DRIZZLE   46  46 100 VRB6      29.59F FOG
MONTGOMERY     CLOUDY    47  46  97 CALM      29.59R FOG
POUGHKEEPSIE   CLOUDY    47  45  93 W3        29.58F FOG
ALBANY         DRZL/FOG  47  45  93 CALM      29.58F VSB 3/4
$$

NJZ001-105-106-008-010-013-015-019>022-104-250200-
NEW JERSEY

CITY           SKY/WX    TMP DP  RH WIND       PRES   REMARKS
NEWARK/LIBERTY DRZL/FOG  53  53 100 NW5       29.60R VSB 1/4
TETERBORO      CLOUDY    50  50 100 NW5       29.59R FOG
CALDWELL       LGT RAIN  48  48 100 CALM      29.63R FOG
MORRISTOWN     NOT AVBL
SOMERVILLE     FOG       50  48  93 CALM      29.61R VSB 3/4
SUSSEX         CLOUDY    47  46  97 SE3       29.61R
ANDOVER        NOT AVBL
TRENTON        CLOUDY    61  59  93 SW13G20   29.61R
MILLVILLE      CLOUDY    58  58 100 SW3       29.65R FOG
ATLANTIC CITY  CLOUDY    58  57  97 S10       29.65R
WRIGHTSTOWN    CLOUDY    62  62 100 SW12      29.61R
TOMS RIVER     CLOUDY    59  59 100 SW12G23   29.64R
BELMAR         CLOUDY    55  52  88 SW5       29.63R VSB 1/2
$$

PAZ047>061-062-071-250200-
EASTERN PENNSYLVANIA

CITY           SKY/WX    TMP DP  RH WIND       PRES   REMARKS
PHILADELPHIA   CLOUDY    60  58  92 S9        29.61F
ALLENTOWN      FOG       50  48  93 CALM      29.59F VSB 1/2
SCRANTON       CLOUDY    53  51  93 CALM      29.53F
$$

CTZ002-004>006-009-010-012-RIZ004-006-007-MAZ004-011-015-250200-
SOUTHERN NEW ENGLAND
 IN CT

CITY           SKY/WX    TMP DP  RH WIND       PRES   REMARKS
BRADLEY INTL   DRIZZLE   43  41  93 N5        29.63F FOG
HARTFORD       LGT RAIN  43  41  93 VRB5      29.63F FOG
DANBURY        FOG       49  47  93 VRB5      29.61F VSB 3/4
WTRBRY/OXFORD  NOT AVBL
BRIDGEPORT     LGT RAIN  55  55 100 S17       29.60F VSB 1/2
MERIDEN        LGT RAIN  44  42  93 N3        29.63F FOG
NEW HAVEN      LGT RAIN  58  54  86 S8        29.61F FOG
CHESTER        LGT RAIN  61  61 100 S13G20    29.64F
GROTON         LGT RAIN  52  52 100 S10       29.67F VSB 1/4
WILLIMANTIC    LGT RAIN  48  47  96 CALM      29.65F FOG

 IN RI

CITY           SKY/WX    TMP DP  RH WIND       PRES   REMARKS
PROVIDENCE     LGT RAIN  51  49  92 CALM      29.71F FOG
BLOCK ISLAND   CLOUDY    57  55  94 S16G22    29.71F
WESTERLY       LGT RAIN  56  56 100 S13       29.70F VSB 1/2

 IN MA

CITY           SKY/WX    TMP DP  RH WIND       PRES   REMARKS
BOSTON         LGT RAIN  46  46 100 N3        29.72F FOG
WORCESTER      LGT RAIN  39  39 100 NE5       29.67F VSB 1
WESTFIELD      LGT RAIN  42  40  92 N7        29.65F FOG
PROVINCETOWN   CLOUDY    57  55  94 S16G24    29.75F
NANTUCKET      LGT RAIN  55  54  96 S18       29.78F VSB 1/4
$$

ANZ330-335-338-340-345-350-353-355-250200-
COASTAL MARINE OBSERVATIONS


STATION/POSITION TIME  SKY/WX   TEMP    WIND        PRES    VSBY  WAVE
                                AIR SEA DIR/SP/G                  HT/PER
                 (UTC)          (F)     (DEG/KT/KT) (MB)    (MI)  (FT/S)
NY HARB ENTRANCE 0100            52 46  200/ 16/ 17 1003.0          5/ 5
4S FIRE IS       0100               47                N/A           6/ 5
20S FIRE ISLAND  0000            57 51              1005.2          5/ 5
23SW MTP         0100                                 N/A           5/ 5
HUDSON CANYON    0100            61 55  180/ 19/ 23 1004.9          6/10
EXECUTION ROCKS  0100            55 42  190/ 17/ 23   N/A
WESTERN LI SOUND 0100            55     180/ 14/ 17   N/A           2/ 4
CENTRAL LI SOUND 0000            53 44  190/ 16/ 19   N/A           2/ 3
EASTERN LI SOUND NOT AVBL
ROBBINS REEF     0100            53                 1000.8
$$


>>>>>>>>>>>>>>>>>>>>>>>>>>>> KEY <<<<<<<<<<<<<<<<<<<<<<<<<<<
>                                                          <
>     SKY/WX - SKY CONDITION/PRESENT WEATHER               <
>     TMP    - TEMPERATURE IN FAHRENHEIT                   <
>     DP     - DEWPOINT IN FAHRENHEIT                      <
>     RH     - RELATIVE HUMIDITY IN PERCENT                <
>     WIND   - DIRECTION AND SPEED IN MPH                  <
>     PRES   - MEAN SEA LEVEL PRESSURE IN INCHES OF HG     <
>     WCI    - WIND CHILL INDEX                            <
>     VSB    - VISIBILITY IN MILES                         <
>     HX     - HEAT INDEX                                  <
>     TC     - TEMPERATURE IN CELSIUS                      <
>     VRB    - VARIABLE WIND DIRECTION                     <
>                                                          <
>>>>>>>>>>>>>>>>>>>>>>>>>>>> KEY <<<<<<<<<<<<<<<<<<<<<<<<<<<





USA.gov is the U.S. government's official web portal to all federal, state and local government web resources and services.